Starlink 32159

operational
NORAD ID: 60293 Int'l Des: 2024-132 Owner: SPXS Country: US Constellation: starlink
LEOCIRCULAR

About Starlink 32159

Description loading...

Live Position

Loading 3D Globe...

Upcoming Passes

Altitude History

Altitude vs Time

uPlot chart will show altitude changes over time

Two-Line Element Set

1 60293U 24132R 25308.21412074 -.00000157 00000-0 68280-5 0 9994
2 60293 53.1607 274.9569 0001259 98.8395 261.2749 15.30199371 72352
Epoch: Nov 4, 2025 • Age: 20 hours

Current Status

Altitude 475.7 km
Velocity 7.63 km/s
Sub-Earth Point 4.75°N, 153.13°W
Launch Date Jul 28, 2024
Age 1.2 years
Type internet

Technical Details

Classification Payload
Mass 730.00 kg
Dry Mass 700.00 kg
Total Mass 730.00 kg
Length 0.30 m
Diameter 4.10 m
Span 29.00 m
Shape Box + pan
Manufacturer SPXS
Bus Type Starlink V2M
Phase Status In Orbit
Owner/State SPXS/US

Large Constellations

Loading constellations...